Airfield :







YOU CAN JOIN US ON...

 
LOGIN :

Register | Disclaimer

   EN    FR    IT 

 









Legend :    VFR   Marginal VFR   IFR   Intensive IFR   Very Intensive IFR
Visi :
Ceiling :
>= 8 km
>= 3000ft
5 to 8 km
1000 to 3000 ft
1500m to 5 km
500 to 1000 ft
800 to 1500m
200 to 500 ft
< 800m
< 200 ft
Symbols :   Thunderstorms  Fog  Heavy snow  Heavy precipitations  Wind > 20 kt






- Airport Elevation : 172 ft
- IATA code : YYY


CYYY - Mont Joli

CURRENT METAR :
  • 171700Z 06008KT 010V080 30SM FEW035TCU FEW110 14/07 A3024 RMK TCU1AC1 SLP243

EXPIRED METARs :
  • 171600Z 03009KT 30SM FEW035 SCT110 13/07 A3024 RMK SC1AC2 SLP244
  • 171500Z 06008KT 30SM FEW035 SCT110 13/07 A3026 RMK SC1AC2 SLP250

TAF TAF CYYY
Valid from the 17 at 14:00 until the 18 at 02:00 UTC


171338Z 1714/1802 31008KT P6SM BKN110
BECMG 1716/1718 06015KT
BECMG 1800/1802 13007KT RMK NXT FCST BY 172000Z
CZUL FIR / North America



MET'MAP, your aeronautical weather chart ! - Copyright ORBIFLY December 2007 - Disclaimer

ORBIFLY MET'MAP TEAM :

Programming & Development : Alexandra Zaïnal
Concept & original design : Baudouin d'Aumeries
Assistance for programming : Marc-Olivier Méhu
Technical & hardware support : Manuel Goepfert

Contact : metmap@orbifly.com




SOURCES & CREDITS :

   NOAA